Warning: Javascript must be enabled to use all the features on this page!


Page Loading - Please Wait...

* We've detected you're using a mobile device. Find our Next Generation Station Page here.
Click to hideNews Bulletins

Peak Streamflow for the Nation

USGS 09277500 DUCHESNE RIVER NEAR TABIONA, UT

Duchesne County, Utah
Hydrologic Unit Code 14060003
Latitude  40°18'01", Longitude 110°36'06" NAD27
Drainage area 353  square miles
Gage datum 6,190.00 feet above NGVD29
Output formats
Table
Graph
Tab-separated file
peakfq (watstore) format
Reselect output format
Water
Year
Date Gage
Height
(feet)
Stream-
flow
(cfs)
1919 1919-05-24 12.743 1,420
1920 1920-06-09 13.533 1,900
1921 1921-06-13   2,5002
1922 1922-06-09 14.403 2,350
1923 1923-06-13 13.683 2,010
1924 1924-05-19 12.083 900
1925 1925-05-21 12.143 930
1926 1926-05-23 12.223 950
1927 1927-06-09 13.073 1,530
1928 1928-05-28 13.343 1,510
1929 1929-05-25 13.823 1,870
1930 1930-06-12 12.273 1,040
1931 1931-07-26 5.483 521
1932 1932-05-22 6.623 1,100
1933 1933-06-11 6.383 975
1934 1934-05-06 4.523 209
1935 1935-06-14 7.013,6 1,220
1936 1936-05-15 6.893 1,590
1937 1937-05-18 7.013 1,750
1938 1938-05-29 7.083 1,660
1939 1939-05-05 5.863 811
1940 1940-05-16 6.253 1,060
1941 1941-05-27 6.613 1,330
1942 1942-05-27 6.683 1,370
1943 1943-06-01 6.733 1,410
1944 1944-06-01 6.743 1,300
1945 1945-07-19 6.903 1,520
1946 1946-06-06 6.193 1,000
1947 1947-05-09 6.813 1,450
1948 1948-05-22 6.793 1,430
1949 1949-06-13 7.003 1,550
1950 1950-06-02 7.492,3 1,840
1951 1951-05-29 8.243 1,890
1952 1952-06-06 6.633 2,060
1953 1953-06-14 6.613 1,800
1954 1954-05-12 3.913,6 5426
1955 1955-05-23 4.593 9616
1956 1956-06-02 5.293 1,4506
1957 1957-06-07 5.933 2,0806
1958 1958-05-28 5.823,5 1,8306
1959 1959-06-07 3.513 3576
1960 1960-09-02 5.233 1,4106
1961 1961-08-25 4.503 8496
1962 1962-05-11 4.683 1,0006
1963 1963-06-16 7.973,5 5,2603,6
1964 1964-06-07 4.973 1,4006
1965 1965-06-13 5.603 1,8506
1966 1966-05-10 3.773 7306
1967 1967-06-21 5.213 1,6906
1968 1968-06-05 5.443 1,9006
1969 1969-05-27 5.403 1,6406
1970 1970-06-10 4.453 9726
1971 1971-06-18 5.623 1,8006
1972 1972-06-04 6.153 2,6306
1973 1973-05-22 3.706 1,4806
1974 1974-05-29 3.97 2,1206
1975 1975-06-16 5.92 2,2006
1976 1976-05-19 4.12 1,0606
1977 1977-06-04 2.54 3296
1978 1978-06-10 4.93 1,4606
1979 1979-05-29 4.17 1,1606
1980 1980-06-11 5.17 1,9106
1981 1981-06-07   9801,6
1982 1982-06-20 4.56 1,4606
1983 1983-06-19 5.42 2,2906
1984 1984-06-01 5.18 2,0206
1985 1985-05-28 3.95 1,2406
1986 1986-06-06 5.63 2,6506
1987 1987-05-19 2.89 5766
1988 1988-05-17 2.63 4696
1989 1989-05-09 2.20 3086
1990 1990-06-11 3.26 6296
1991 1991-06-11 4.13 1,1106
1992 1992-05-26 1.81 1606
1993 1993-05-27 4.48 1,4606
1994 1994-05-14 1.98 1756
1995 1995-06-15 5.09 2,0006
1996 1996-06-06 4.34 1,2506
1997 1997-06-01 5.70 1,2206
1998 1998-06-23 4.47 1,3606
1999 1999-06-19 4.89 1,7706
2000 2000-05-26 2.48 3006
2001 2001-05-17 3.75 8866
2002 2002-09-07 2.55 2786
2003 2003-05-28 2.78 3826
2004 2004-05-06 2.37 2496
2005 2005-05-24 5.38 2,1606
2006 2006-05-22 4.80 1,6006
2007 2006-10-06 2.33 2546
2008 2008-06-19 3.92 9466
2009 2009-05-20 4.17 1,1706
2010 2010-06-08 4.55 1,3706
2011 2011-06-16 5.72 2,8206
2012 2011-10-04   3441,6
2013 2013-07-18 3.93 1,2806
2014 2014-09-27 4.67 1,8406
2015 2015-06-02 1.69 2626
2016 2016-09-29 3.24 8666
2017 2017-06-08 5.04 1,9606
2018 2018-08-22 2.48 4936
2019 2019-06-14 5.56 2,0806
2020 2020-06-07 2.10 3516
2021 2021-08-18 2.20 3896
?
  Peak Gage-Height Qualification Codes.
?
  Peak Streamflow Qualification Codes.